| time (UTC) | temp F | wind direction | speed knots | gust knots | rain 1hr in | rain 24hr in | rain mn in | humidity % | barometer mb |
| 20260510061327 | 51 | 310 | 2.6 | 7.8 | 0.00 | 0.39 | 0.00 | 56 | 1009.0 |
| 20260510060835 | 51 | 322 | 2.6 | 9.6 | 0.00 | 0.39 | 0.00 | 57 | 1009.0 |
| 20260510060353 | 51 | 316 | 4.3 | 9.6 | 0.00 | 0.39 | 0.00 | 57 | 1009.1 |
| 20260510055839 | 51 | 283 | 1.7 | 6.1 | 0.00 | 0.39 | 0.00 | 57 | 1009.0 |
| 20260510055336 | 51 | 302 | 3.5 | 6.1 | 0.00 | 0.39 | 0.00 | 56 | 1008.9 |
| 20260510054823 | 51 | 308 | 2.6 | 6.1 | 0.00 | 0.39 | 0.00 | 56 | 1008.8 |
| 20260510054351 | 51 | 318 | 1.7 | 3.5 | 0.00 | 0.39 | 0.00 | 58 | 1008.8 |
| 20260510053829 | 52 | 305 | 0.9 | 3.5 | 0.00 | 0.39 | 0.00 | 58 | 1008.6 |
| 20260510053336 | 52 | 314 | 1.7 | 3.5 | 0.00 | 0.39 | 0.00 | 58 | 1008.5 |
| 20260510052842 | 52 | 299 | 1.7 | 4.3 | 0.00 | 0.39 | 0.00 | 58 | 1008.4 |
| 20260510052348 | 52 | 303 | 1.7 | 4.3 | 0.00 | 0.39 | 0.00 | 59 | 1008.4 |
| 20260510051824 | 52 | 309 | 1.7 | 5.2 | 0.00 | 0.39 | 0.00 | 58 | 1008.4 |
| 20260510051330 | 52 | 309 | 1.7 | 7.0 | 0.00 | 0.39 | 0.00 | 58 | 1008.4 |
| 20260510050839 | 52 | 291 | 1.7 | 5.2 | 0.00 | 0.39 | 0.00 | 58 | 1008.3 |
| 20260510050356 | 52 | 273 | 1.7 | 4.3 | 0.00 | 0.39 | 0.00 | 59 | 1008.3 |
| 20260510045837 | 52 | 295 | 0.9 | 3.5 | 0.00 | 0.39 | 0.00 | 61 | 1008.3 |
| 20260510045323 | 52 | 302 | 0.9 | 2.6 | 0.00 | 0.39 | 0.00 | 60 | 1008.3 |
| 20260510044851 | 52 | 306 | 0.9 | 4.3 | 0.00 | 0.39 | 0.00 | 60 | 1008.2 |
| 20260510044329 | 52 | 317 | 2.6 | 6.1 | 0.00 | 0.39 | 0.00 | 60 | 1008.1 |
| 20260510043831 | 52 | 308 | 2.6 | 4.3 | 0.00 | 0.39 | 0.00 | 61 | 1008.0 |
| 20260510043340 | 52 | 304 | 1.7 | 5.2 | 0.00 | 0.39 | 0.00 | 62 | 1007.9 |
| 20260510042837 | 52 | 341 | 1.7 | 5.2 | 0.00 | 0.39 | 0.00 | 63 | 1007.8 |
| 20260510042322 | 52 | 318 | 1.7 | 4.3 | 0.00 | 0.39 | 0.00 | 63 | 1007.7 |
| 20260510041829 | 53 | 342 | 2.6 | 4.3 | 0.00 | 0.39 | 0.00 | 64 | 1007.6 |
| 20260510041327 | 53 | 315 | 1.7 | 3.5 | 0.00 | 0.39 | 0.00 | 65 | 1007.6 |
| 20260510040833 | 53 | 333 | 1.7 | 5.2 | 0.00 | 0.39 | 0.00 | 64 | 1007.5 |
| 20260510040349 | 53 | 297 | 1.7 | 6.1 | 0.00 | 0.39 | 0.00 | 63 | 1007.5 |
| 20260510035838 | 53 | 325 | 1.7 | 8.7 | 0.00 | 0.39 | 0.00 | 63 | 1007.5 |
| 20260510035345 | 53 | 300 | 1.7 | 8.7 | 0.00 | 0.39 | 0.10 | 64 | 1007.4 |
| 20260510034822 | 53 | 328 | 1.7 | 6.1 | 0.00 | 0.39 | 0.10 | 66 | 1007.4 |
| 20260510034329 | 54 | 319 | 1.7 | 4.3 | 0.00 | 0.39 | 0.10 | 67 | 1007.2 |
| 20260510033837 | 54 | 339 | 1.7 | 4.3 | 0.00 | 0.39 | 0.10 | 67 | 1007.0 |
| 20260510033334 | 54 | 330 | 0.9 | 6.1 | 0.00 | 0.39 | 0.10 | 70 | 1006.9 |
| 20260510032841 | 54 | 350 | 1.7 | 6.1 | 0.00 | 0.39 | 0.10 | 68 | 1007.1 |
| 20260510032330 | 54 | 306 | 1.7 | 4.3 | 0.00 | 0.39 | 0.10 | 70 | 1006.9 |
| 20260510031823 | 54 | 319 | 0.9 | 4.3 | 0.00 | 0.39 | 0.10 | 70 | 1006.6 |
| 20260510031330 | 54 | 345 | 1.7 | 4.3 | 0.00 | 0.39 | 0.10 | 71 | 1006.6 |
| 20260510030839 | 54 | 9 | 3.5 | 4.3 | 0.00 | 0.39 | 0.10 | 71 | 1006.5 |
| 20260510030356 | 54 | 330 | 1.7 | 4.3 | 0.00 | 0.39 | 0.10 | 72 | 1006.3 |
| 20260510025837 | 55 | 344 | 0.9 | 3.5 | 0.00 | 0.39 | 0.10 | 73 | 1006.6 |
| 20260510025324 | 55 | 328 | 0.9 | 4.3 | 0.00 | 0.39 | 0.10 | 73 | 1006.6 |
| 20260510024831 | 55 | 335 | 1.7 | 5.2 | 0.00 | 0.39 | 0.10 | 74 | 1006.6 |
| 20260510024330 | 55 | 328 | 2.6 | 5.2 | 0.00 | 0.39 | 0.10 | 77 | 1006.6 |
| 20260510023838 | 55 | 333 | 2.6 | 7.8 | 0.00 | 0.39 | 0.10 | 80 | 1006.4 |
| 20260510023324 | 56 | 319 | 3.5 | 10.4 | 0.00 | 0.39 | 0.10 | 80 | 1006.5 |
| 20260510022851 | 56 | 312 | 4.3 | 11.3 | 0.00 | 0.39 | 0.10 | 80 | 1006.5 |
| 20260510022325 | 56 | 320 | 7.0 | 11.3 | 0.00 | 0.39 | 0.10 | 81 | 1006.5 |
| 20260510021831 | 56 | 307 | 3.5 | 6.1 | 0.00 | 0.39 | 0.10 | 81 | 1006.4 |
| 20260510021339 | 56 | 323 | 2.6 | 4.3 | 0.00 | 0.39 | 0.10 | 81 | 1006.1 |
| 20260510020837 | 56 | 309 | 1.7 | 4.3 | 0.00 | 0.39 | 0.10 | 81 | 1006.0 |
| 20260510020348 | 56 | 311 | 1.7 | 4.3 | 0.00 | 0.39 | 0.10 | 81 | 1005.9 |
| 20260510015838 | 56 | 307 | 1.7 | 3.5 | 0.00 | 0.39 | 0.10 | 81 | 1005.7 |
| 20260510015326 | 56 | 307 | 2.6 | 3.5 | 0.00 | 0.39 | 0.10 | 82 | 1005.6 |
| 20260510014823 | 55 | 263 | 0.9 | 2.6 | 0.00 | 0.39 | 0.10 | 82 | 1005.6 |
| 20260510014330 | 55 | 260 | 0.0 | 1.7 | 0.00 | 0.39 | 0.10 | 82 | 1005.5 |
| 20260510013838 | 55 | 258 | 0.0 | 1.7 | 0.00 | 0.39 | 0.10 | 82 | 1005.4 |
| 20260510013345 | 55 | 242 | 0.0 | 1.7 | 0.00 | 0.39 | 0.10 | 81 | 1005.3 |
| 20260510012823 | 55 | 258 | 0.9 | 1.7 | 0.00 | 0.39 | 0.10 | 81 | 1005.2 |
| 20260510012331 | 55 | 253 | 0.9 | 1.7 | 0.00 | 0.39 | 0.10 | 81 | 1004.9 |
| 20260510011829 | 55 | 258 | 0.0 | 0.0 | 0.00 | 0.39 | 0.10 | 80 | 1004.8 |
| 20260510011336 | 55 | 259 | 0.0 | 0.0 | 0.00 | 0.39 | 0.10 | 80 | 1004.7 |
| 20260510010840 | 55 | 262 | 0.0 | 0.0 | 0.00 | 0.39 | 0.10 | 79 | 1004.6 |
| 20260510010358 | 55 | 263 | 0.0 | 0.0 | 0.00 | 0.39 | 0.10 | 79 | 1004.5 |
| 20260510005847 | 56 | 271 | 0.0 | 1.7 | 0.00 | 0.39 | 0.10 | 78 | 1004.3 |
| 20260510005325 | 56 | 290 | 0.9 | 2.6 | 0.00 | 0.39 | 0.10 | 78 | 1004.2 |
| 20260510004831 | 56 | 247 | 0.0 | 5.2 | 0.00 | 0.39 | 0.10 | 77 | 1004.3 |
| 20260510004335 | 56 | 258 | 2.6 | 5.2 | 0.00 | 0.39 | 0.10 | 77 | 1004.3 |
| 20260510003832 | 56 | 290 | 2.6 | 4.3 | 0.00 | 0.39 | 0.10 | 77 | 1004.1 |
| 20260510003340 | 56 | 304 | 1.7 | 4.3 | 0.00 | 0.39 | 0.10 | 78 | 1004.1 |
| 20260510002826 | 56 | 289 | 0.9 | 2.6 | 0.00 | 0.39 | 0.10 | 78 | 1004.0 |
| 20260510002323 | 56 | 299 | 0.9 | 7.0 | 0.00 | 0.39 | 0.10 | 78 | 1004.1 |
| 20260510001830 | 56 | 309 | 2.6 | 7.8 | 0.00 | 0.39 | 0.10 | 79 | 1004.0 |
| 20260510001338 | 56 | 272 | 3.5 | 9.6 | 0.00 | 0.39 | 0.10 | 79 | 1003.9 |
| 20260510000845 | 55 | 267 | 4.3 | 9.6 | 0.00 | 0.39 | 0.10 | 81 | 1003.8 |
| 20260510000403 | 55 | 248 | 2.6 | 5.2 | 0.00 | 0.39 | 0.10 | 83 | 1003.8 |
| 20260509235842 | 54 | 288 | 2.6 | 5.2 | 0.00 | 0.39 | 0.10 | 84 | 1003.6 |
| 20260509235328 | 54 | 283 | 1.7 | 4.3 | 0.00 | 0.39 | 0.10 | 85 | 1003.4 |
| 20260509234823 | 53 | 237 | 0.0 | 2.6 | 0.00 | 0.39 | 0.10 | 84 | 1003.3 |
| 20260509234330 | 53 | 231 | 0.9 | 2.6 | 0.00 | 0.39 | 0.10 | 84 | 1003.3 |
| 20260509233838 | 52 | 257 | 0.9 | 6.1 | 0.00 | 0.39 | 0.10 | 84 | 1003.2 |
| 20260509233345 | 52 | 269 | 1.7 | 6.1 | 0.00 | 0.39 | 0.10 | 83 | 1003.1 |
| 20260509232848 | 52 | 227 | 1.7 | 7.8 | 0.00 | 0.39 | 0.10 | 83 | 1003.1 |
| 20260509232325 | 52 | 219 | 2.6 | 11.3 | 0.00 | 0.39 | 0.10 | 82 | 1002.9 |
| 20260509231831 | 53 | 208 | 4.3 | 13.9 | 0.00 | 0.39 | 0.10 | 81 | 1003.0 |
| 20260509231329 | 53 | 219 | 5.2 | 11.3 | 0.00 | 0.39 | 0.10 | 80 | 1003.0 |
| 20260509230834 | 54 | 226 | 6.1 | 13.0 | 0.00 | 0.39 | 0.10 | 80 | 1002.8 |
| 20260509230350 | 54 | 232 | 7.8 | 15.6 | 0.00 | 0.39 | 0.10 | 80 | 1002.8 |
| 20260509225840 | 54 | 240 | 10.4 | 16.5 | 0.00 | 0.39 | 0.10 | 80 | 1002.7 |
| 20260509225346 | 54 | 207 | 9.6 | 14.8 | 0.08 | 0.39 | 0.10 | 80 | 1002.8 |
| 20260509224822 | 54 | 278 | 6.1 | 15.6 | 0.24 | 0.39 | 0.10 | 80 | 1003.0 |
| 20260509224330 | 54 | 232 | 6.1 | 13.9 | 0.28 | 0.39 | 0.10 | 79 | 1002.9 |
| 20260509223838 | 54 | 223 | 6.1 | 13.0 | 0.35 | 0.39 | 0.10 | 79 | 1002.7 |
| 20260509223335 | 54 | 257 | 5.2 | 12.2 | 0.35 | 0.39 | 0.10 | 79 | 1002.7 |
| 20260509222823 | 55 | 224 | 5.2 | 13.9 | 0.39 | 0.39 | 0.10 | 78 | 1002.6 |
| 20260509222330 | 55 | 231 | 7.0 | 13.9 | 0.39 | 0.39 | 0.10 | 79 | 1002.6 |
| 20260509221828 | 55 | 205 | 6.1 | 12.2 | 0.39 | 0.39 | 0.10 | 80 | 1002.6 |
| 20260509221334 | 55 | 176 | 6.1 | 19.1 | 0.39 | 0.39 | 0.10 | 80 | 1002.5 |
| 20260509220822 | 55 | 205 | 8.7 | 21.7 | 0.39 | 0.39 | 0.10 | 82 | 1002.3 |
| 20260509220355 | 55 | 210 | 12.2 | 21.7 | 0.39 | 0.39 | 0.10 | 83 | 1002.3 |
| 20260509215845 | 55 | 269 | 8.7 | 19.1 | 0.35 | 0.35 | 0.09 | 82 | 1002.9 |
| 20260509215322 | 56 | 353 | 7.0 | 13.0 | 0.28 | 0.28 | 0.07 | 84 | 1004.0 |
| 20260509214829 | 55 | 281 | 3.5 | 6.1 | 0.16 | 0.16 | 0.04 | 82 | 1003.5 |
| 20260509214326 | 55 | 243 | 2.6 | 13.0 | 0.12 | 0.12 | 0.03 | 80 | 1003.2 |
| 20260509213832 | 55 | 245 | 5.2 | 13.0 | 0.04 | 0.04 | 0.01 | 79 | 1003.0 |
| 20260509213339 | 55 | 271 | 6.1 | 12.2 | 0.04 | 0.04 | 0.01 | 77 | 1002.8 |
| 20260509212847 | 56 | 205 | 7.0 | 11.3 | 0.00 | 0.00 | 0.00 | 76 | 1002.9 |
| 20260509212324 | 56 | 222 | 6.1 | 12.2 | 0.00 | 0.00 | 0.00 | 76 | 1002.8 |
| 20260509211830 | 57 | 212 | 4.3 | 12.2 | 0.00 | 0.00 | 0.00 | 76 | 1002.7 |
| 20260509211338 | 57 | 238 | 6.1 | 13.0 | 0.00 | 0.00 | 0.00 | 76 | 1002.9 |
| 20260509210846 | 57 | 171 | 5.2 | 13.0 | 0.00 | 0.00 | 0.00 | 76 | 1002.9 |
| 20260509210404 | 57 | 230 | 7.0 | 13.9 | 0.00 | 0.00 | 0.00 | 75 | 1002.8 |
| 20260509205842 | 57 | 231 | 7.0 | 13.9 | 0.00 | 0.00 | 0.00 | 75 | 1002.6 |
| 20260509205329 | 57 | 181 | 7.8 | 14.8 | 0.00 | 0.00 | 0.00 | 75 | 1002.3 |
| 20260509204824 | 57 | 217 | 7.0 | 14.8 | 0.00 | 0.00 | 0.00 | 75 | 1002.3 |
| 20260509204332 | 57 | 200 | 7.0 | 13.0 | 0.00 | 0.00 | 0.00 | 75 | 1002.2 |
| 20260509203840 | 57 | 159 | 7.8 | 12.2 | 0.00 | 0.00 | 0.00 | 76 | 1002.5 |
| 20260509203347 | 56 | 217 | 5.2 | 10.4 | 0.00 | 0.00 | 0.00 | 75 | 1002.5 |
| 20260509202826 | 57 | 189 | 4.3 | 9.6 | 0.00 | 0.00 | 0.00 | 75 | 1002.5 |
| 20260509202332 | 57 | 160 | 3.5 | 13.9 | 0.00 | 0.00 | 0.00 | 75 | 1002.5 |
| 20260509201838 | 56 | 199 | 6.1 | 13.9 | 0.00 | 0.00 | 0.00 | 75 | 1002.6 |
| 20260509201335 | 56 | 203 | 5.2 | 13.9 | 0.00 | 0.00 | 0.00 | 74 | 1002.6 |
| 20260509200842 | 57 | 208 | 7.8 | 13.0 | 0.00 | 0.00 | 0.00 | 74 | 1002.6 |
| 20260509200340 | 57 | 158 | 6.1 | 13.0 | 0.00 | 0.00 | 0.00 | 74 | 1002.6 |
| 20260509195831 | 57 | 151 | 4.3 | 13.9 | 0.00 | 0.00 | 0.00 | 74 | 1003.0 |
| 20260509195329 | 57 | 155 | 7.8 | 13.9 | 0.00 | 0.00 | 0.00 | 73 | 1003.1 |
| 20260509194837 | 57 | 217 | 6.1 | 10.4 | 0.00 | 0.00 | 0.00 | 77 | 1003.2 |
| 20260509194344 | 54 | 226 | 0.9 | 6.1 | 0.00 | 0.00 | 0.00 | 79 | 1003.2 |
| 20260509193850 | 53 | 225 | 0.9 | 5.2 | 0.00 | 0.00 | 0.00 | 79 | 1003.1 |
| 20260509193328 | 53 | 139 | 0.9 | 4.3 | 0.00 | 0.00 | 0.00 | 78 | 1003.3 |
| 20260509192830 | 53 | 124 | 0.9 | 3.5 | 0.00 | 0.00 | 0.00 | 79 | 1003.4 |
| 20260509192329 | 52 | 118 | 0.9 | 3.5 | 0.00 | 0.00 | 0.00 | 79 | 1003.6 |
| 20260509191836 | 52 | 153 | 1.7 | 3.5 | 0.00 | 0.00 | 0.00 | 79 | 1003.6 |
| 20260509191342 | 52 | 143 | 1.7 | 3.5 | 0.00 | 0.00 | 0.00 | 78 | 1003.7 |
| 20260509190849 | 52 | 70 | 1.7 | 7.0 | 0.00 | 0.00 | 0.00 | 79 | 1003.7 |
| 20260509190407 | 52 | 200 | 2.6 | 7.8 | 0.00 | 0.00 | 0.00 | 79 | 1003.6 |
| 20260509185826 | 52 | 89 | 4.3 | 8.7 | 0.00 | 0.00 | 0.00 | 78 | 1003.8 |
| 20260509185333 | 52 | 129 | 3.5 | 9.6 | 0.00 | 0.00 | 0.00 | 78 | 1003.8 |
| 20260509184838 | 52 | 102 | 4.3 | 9.6 | 0.00 | 0.00 | 0.00 | 77 | 1003.9 |
| 20260509184336 | 53 | 142 | 3.5 | 11.3 | 0.00 | 0.00 | 0.00 | 77 | 1003.9 |
| 20260509183840 | 54 | 174 | 4.3 | 9.6 | 0.00 | 0.00 | 0.00 | 76 | 1003.9 |
| 20260509183326 | 54 | 106 | 3.5 | 13.0 | 0.00 | 0.00 | 0.00 | 76 | 1003.9 |
| 20260509182824 | 55 | 119 | 4.3 | 13.0 | 0.00 | 0.00 | 0.00 | 77 | 1003.9 |
| 20260509182331 | 55 | 117 | 5.2 | 9.6 | 0.00 | 0.00 | 0.00 | 79 | 1003.9 |
| 20260509181839 | 54 | 140 | 3.5 | 10.4 | 0.00 | 0.00 | 0.00 | 80 | 1004.0 |
| 20260509181341 | 54 | 115 | 3.5 | 11.3 | 0.00 | 0.00 | 0.00 | 79 | 1004.0 |
| 20260509180839 | 55 | 148 | 6.1 | 11.3 | 0.00 | 0.00 | 0.00 | 78 | 1004.0 |
| 20260509180355 | 55 | 208 | 5.2 | 11.3 | 0.00 | 0.00 | 0.00 | 79 | 1003.9 |
| 20260509175824 | 56 | 129 | 5.2 | 10.4 | 0.00 | 0.00 | 0.00 | 77 | 1004.1 |
| 20260509175331 | 56 | 151 | 3.5 | 8.7 | 0.00 | 0.00 | 0.00 | 78 | 1004.2 |
| 20260509174828 | 56 | 123 | 4.3 | 11.3 | 0.00 | 0.00 | 0.00 | 77 | 1004.2 |
| 20260509174334 | 56 | 100 | 5.2 | 11.3 | 0.00 | 0.00 | 0.00 | 77 | 1004.2 |
| 20260509173841 | 57 | 158 | 5.2 | 10.4 | 0.00 | 0.00 | 0.00 | 77 | 1004.3 |
| 20260509173347 | 57 | 110 | 2.6 | 9.6 | 0.00 | 0.00 | 0.00 | 79 | 1004.5 |
| 20260509172825 | 56 | 129 | 4.3 | 9.6 | 0.00 | 0.00 | 0.00 | 79 | 1004.5 |
| 20260509172333 | 57 | 160 | 5.2 | 9.6 | 0.00 | 0.00 | 0.00 | 79 | 1004.7 |
| 20260509171842 | 56 | 137 | 6.1 | 9.6 | 0.00 | 0.00 | 0.00 | 79 | 1004.8 |
| 20260509171339 | 57 | 136 | 6.1 | 9.6 | 0.00 | 0.00 | 0.00 | 79 | 1005.0 |
| 20260509170825 | 57 | 121 | 5.2 | 9.6 | 0.00 | 0.00 | 0.00 | 80 | 1005.1 |
| 20260509170344 | 57 | 56 | 5.2 | 7.8 | 0.00 | 0.00 | 0.00 | 80 | 1005.0 |
| 20260509165825 | 57 | 44 | 3.5 | 7.8 | 0.00 | 0.00 | 0.00 | 80 | 1005.2 |
| 20260509165326 | 56 | 71 | 4.3 | 7.8 | 0.00 | 0.00 | 0.00 | 79 | 1005.3 |
| 20260509164834 | 57 | 110 | 3.5 | 7.8 | 0.00 | 0.00 | 0.00 | 80 | 1005.2 |
| 20260509164341 | 56 | 129 | 3.5 | 8.7 | 0.00 | 0.00 | 0.00 | 81 | 1005.1 |
| 20260509163839 | 56 | 129 | 6.1 | 8.7 | 0.00 | 0.00 | 0.00 | 80 | 1005.3 |
| 20260509163326 | 56 | 143 | 4.3 | 7.8 | 0.00 | 0.00 | 0.00 | 80 | 1005.3 |
| 20260509162830 | 55 | 155 | 2.6 | 7.0 | 0.00 | 0.00 | 0.00 | 81 | 1005.3 |
| 20260509162326 | 55 | 200 | 3.5 | 6.1 | 0.00 | 0.00 | 0.00 | 80 | 1005.2 |
| 20260509161833 | 55 | 174 | 2.6 | 7.0 | 0.00 | 0.00 | 0.00 | 82 | 1005.4 |
| 20260509161340 | 55 | 149 | 1.7 | 5.2 | 0.00 | 0.00 | 0.00 | 81 | 1005.5 |
| 20260509160847 | 54 | 111 | 3.5 | 6.1 | 0.00 | 0.00 | 0.00 | 81 | 1005.5 |
| 20260509160404 | 54 | 149 | 2.6 | 7.0 | 0.00 | 0.00 | 0.00 | 81 | 1005.6 |
| 20260509155824 | 54 | 200 | 3.5 | 7.0 | 0.00 | 0.00 | 0.00 | 81 | 1005.6 |
| 20260509155331 | 54 | 127 | 2.6 | 7.0 | 0.00 | 0.00 | 0.00 | 80 | 1005.7 |
| 20260509154838 | 54 | 153 | 3.5 | 7.0 | 0.00 | 0.00 | 0.00 | 80 | 1005.8 |
| 20260509154336 | 54 | 177 | 1.7 | 5.2 | 0.00 | 0.00 | 0.00 | 81 | 1006.0 |
| 20260509153823 | 54 | 115 | 2.6 | 4.3 | 0.00 | 0.00 | 0.00 | 80 | 1006.1 |
| 20260509153347 | 54 | 173 | 0.9 | 4.3 | 0.00 | 0.00 | 0.00 | 82 | 1006.1 |
| 20260509152850 | 53 | 99 | 1.7 | 4.3 | 0.00 | 0.00 | 0.00 | 82 | 1006.3 |
| 20260509152328 | 52 | 112 | 1.7 | 4.3 | 0.00 | 0.00 | 0.00 | 82 | 1006.3 |
| 20260509151834 | 52 | 179 | 2.6 | 4.3 | 0.00 | 0.00 | 0.00 | 81 | 1006.4 |
| 20260509151332 | 52 | 140 | 2.6 | 4.3 | 0.00 | 0.00 | 0.00 | 82 | 1006.3 |
| 20260509150839 | 52 | 148 | 1.7 | 5.2 | 0.00 | 0.00 | 0.00 | 83 | 1006.4 |
| 20260509150357 | 51 | 151 | 1.7 | 5.2 | 0.00 | 0.00 | 0.00 | 84 | 1006.4 |
| 20260509145827 | 51 | 225 | 1.7 | 6.1 | 0.00 | 0.00 | 0.00 | 85 | 1006.2 |
| 20260509145324 | 50 | 98 | 2.6 | 6.1 | 0.00 | 0.00 | 0.00 | 85 | 1006.1 |
| 20260509144832 | 49 | 139 | 2.6 | 7.8 | 0.00 | 0.00 | 0.00 | 85 | 1006.1 |
| 20260509144339 | 48 | 117 | 5.2 | 7.8 | 0.00 | 0.00 | 0.00 | 84 | 1006.3 |
| 20260509143848 | 48 | 104 | 2.6 | 6.1 | 0.00 | 0.00 | 0.00 | 84 | 1006.4 |
| 20260509143326 | 48 | 110 | 2.6 | 6.1 | 0.00 | 0.00 | 0.00 | 84 | 1006.5 |
| 20260509142833 | 48 | 90 | 3.5 | 6.1 | 0.00 | 0.00 | 0.00 | 84 | 1006.6 |
| 20260509142339 | 48 | 92 | 3.5 | 6.1 | 0.00 | 0.00 | 0.00 | 83 | 1006.6 |
| 20260509141834 | 48 | 121 | 2.6 | 5.2 | 0.00 | 0.00 | 0.00 | 83 | 1006.6 |
| 20260509141342 | 49 | 122 | 2.6 | 5.2 | 0.00 | 0.00 | 0.00 | 83 | 1006.7 |
| 20260509140848 | 49 | 124 | 2.6 | 4.3 | 0.00 | 0.00 | 0.00 | 82 | 1006.8 |
| 20260509140407 | 49 | 169 | 0.9 | 7.0 | 0.00 | 0.00 | 0.00 | 82 | 1006.8 |
| 20260509135827 | 49 | 146 | 3.5 | 7.0 | 0.00 | 0.00 | 0.00 | 82 | 1006.8 |
| 20260509135334 | 49 | 119 | 2.6 | 6.1 | 0.00 | 0.00 | 0.00 | 81 | 1006.7 |
| 20260509134840 | 49 | 112 | 2.6 | 6.1 | 0.00 | 0.00 | 0.00 | 81 | 1006.8 |
| 20260509134348 | 49 | 114 | 0.9 | 7.0 | 0.00 | 0.00 | 0.00 | 81 | 1006.9 |
| 20260509133824 | 49 | 114 | 3.5 | 7.0 | 0.00 | 0.00 | 0.00 | 81 | 1006.7 |
| 20260509133330 | 49 | 94 | 2.6 | 7.0 | 0.00 | 0.00 | 0.00 | 80 | 1006.8 |
| 20260509132829 | 49 | 111 | 3.5 | 6.1 | 0.00 | 0.00 | 0.00 | 80 | 1006.8 |
| 20260509132334 | 49 | 73 | 3.5 | 6.1 | 0.00 | 0.00 | 0.00 | 79 | 1006.9 |
| 20260509131822 | 48 | 130 | 3.5 | 5.2 | 0.00 | 0.00 | 0.00 | 79 | 1006.9 |
| 20260509131349 | 48 | 99 | 4.3 | 5.2 | 0.00 | 0.00 | 0.00 | 79 | 1007.0 |
| 20260509130826 | 49 | 80 | 2.6 | 5.2 | 0.00 | 0.00 | 0.00 | 79 | 1007.0 |
| 20260509130345 | 49 | 124 | 2.6 | 5.2 | 0.00 | 0.00 | 0.00 | 78 | 1007.0 |
| 20260509125827 | 49 | 135 | 0.9 | 5.2 | 0.00 | 0.00 | 0.00 | 78 | 1007.0 |
| 20260509125334 | 49 | 169 | 2.6 | 5.2 | 0.00 | 0.08 | 0.00 | 77 | 1007.1 |
| 20260509124833 | 49 | 119 | 0.9 | 4.3 | 0.00 | 0.08 | 0.00 | 78 | 1007.1 |
| 20260509124341 | 49 | 129 | 1.7 | 6.1 | 0.00 | 0.08 | 0.00 | 77 | 1007.1 |
| 20260509123847 | 48 | 121 | 3.5 | 7.8 | 0.00 | 0.08 | 0.00 | 77 | 1007.1 |
| 20260509123325 | 48 | 150 | 3.5 | 7.8 | 0.00 | 0.08 | 0.00 | 77 | 1007.2 |
| 20260509122831 | 49 | 97 | 2.6 | 6.1 | 0.00 | 0.08 | 0.00 | 76 | 1007.2 |
| 20260509122337 | 48 | 127 | 1.7 | 6.1 | 0.00 | 0.08 | 0.00 | 76 | 1007.2 |
| 20260509121843 | 48 | 136 | 1.7 | 7.0 | 0.00 | 0.08 | 0.00 | 76 | 1007.3 |
| 20260509121342 | 48 | 108 | 2.6 | 7.0 | 0.00 | 0.08 | 0.00 | 75 | 1007.2 |
| 20260509120829 | 47 | 115 | 2.6 | 4.3 | 0.00 | 0.08 | 0.00 | 75 | 1007.3 |
| 20260509120347 | 47 | 138 | 1.7 | 6.1 | 0.00 | 0.08 | 0.00 | 75 | 1007.1 |
| 20260509115837 | 48 | 150 | 1.7 | 6.1 | 0.00 | 0.08 | 0.00 | 75 | 1007.1 |
| 20260509115343 | 47 | 118 | 2.6 | 5.2 | 0.00 | 0.20 | 0.00 | 75 | 1006.9 |
| 20260509114836 | 47 | 83 | 1.7 | 5.2 | 0.00 | 0.20 | 0.00 | 75 | 1007.0 |
| 20260509114322 | 47 | 97 | 2.6 | 5.2 | 0.00 | 0.20 | 0.00 | 74 | 1007.1 |
| 20260509113850 | 47 | 146 | 1.7 | 4.3 | 0.00 | 0.20 | 0.00 | 74 | 1007.0 |
| 20260509113328 | 46 | 82 | 1.7 | 5.2 | 0.00 | 0.20 | 0.00 | 74 | 1007.1 |
| 20260509112833 | 46 | 113 | 1.7 | 5.2 | 0.00 | 0.20 | 0.00 | 74 | 1007.1 |
| 20260509112338 | 46 | 83 | 3.5 | 5.2 | 0.00 | 0.20 | 0.00 | 74 | 1007.1 |
| 20260509111844 | 45 | 139 | 2.6 | 4.3 | 0.00 | 0.20 | 0.00 | 75 | 1007.1 |
| 20260509111341 | 45 | 107 | 1.7 | 3.5 | 0.00 | 0.20 | 0.00 | 75 | 1007.1 |
| 20260509110826 | 45 | 124 | 1.7 | 3.5 | 0.00 | 0.20 | 0.00 | 76 | 1007.1 |
| 20260509110346 | 45 | 113 | 1.7 | 3.5 | 0.00 | 0.20 | 0.00 | 76 | 1007.1 |
| 20260509105916 | 45 | 127 | 0.9 | 3.5 | 0.00 | 0.20 | 0.00 | 76 | 1007.1 |
| 20260509105339 | 45 | 96 | 1.7 | 3.5 | 0.00 | 0.20 | 0.00 | 76 | 1007.1 |
| 20260509104846 | 45 | 123 | 0.9 | 1.7 | 0.00 | 0.20 | 0.00 | 77 | 1007.1 |
| 20260509104338 | 45 | 120 | 0.0 | 0.9 | 0.00 | 0.20 | 0.00 | 76 | 1007.2 |
| 20260509103823 | 45 | 122 | 0.0 | 1.7 | 0.00 | 0.20 | 0.00 | 76 | 1007.2 |
| 20260509103331 | 45 | 113 | 0.0 | 1.7 | 0.00 | 0.20 | 0.00 | 76 | 1007.2 |
| 20260509102828 | 45 | 95 | 0.9 | 1.7 | 0.00 | 0.20 | 0.00 | 76 | 1007.1 |
| 20260509102335 | 45 | 104 | 0.9 | 1.7 | 0.00 | 0.20 | 0.00 | 76 | 1007.1 |
| 20260509101822 | 45 | 79 | 0.0 | 0.9 | 0.00 | 0.20 | 0.00 | 78 | 1007.2 |
| 20260509101349 | 45 | 79 | 0.0 | 3.5 | 0.00 | 0.20 | 0.00 | 77 | 1007.2 |
| 20260509100826 | 45 | 75 | 0.9 | 3.5 | 0.00 | 0.20 | 0.00 | 77 | 1007.2 |
| 20260509100345 | 45 | 120 | 0.0 | 1.7 | 0.00 | 0.20 | 0.00 | 77 | 1007.3 |
| 20260509095834 | 45 | 115 | 0.0 | 1.7 | 0.00 | 0.20 | 0.00 | 79 | 1007.3 |
| 20260509095340 | 45 | 106 | 0.0 | 1.7 | 0.00 | 0.20 | 0.00 | 79 | 1007.4 |
| 20260509094838 | 45 | 120 | 0.0 | 1.7 | 0.00 | 0.20 | 0.00 | 80 | 1007.5 |
| 20260509094325 | 45 | 99 | 0.0 | 0.0 | 0.00 | 0.20 | 0.00 | 79 | 1007.5 |
| 20260509093822 | 45 | 85 | 0.0 | 0.0 | 0.00 | 0.20 | 0.00 | 80 | 1007.5 |
| 20260509093329 | 45 | 99 | 0.0 | 0.0 | 0.00 | 0.20 | 0.00 | 79 | 1007.5 |
| 20260509092836 | 45 | 90 | 0.0 | 1.7 | 0.00 | 0.20 | 0.00 | 80 | 1007.5 |
| 20260509092338 | 45 | 113 | 0.0 | 1.7 | 0.00 | 0.20 | 0.00 | 80 | 1007.5 |
| 20260509091846 | 44 | 119 | 0.0 | 0.0 | 0.00 | 0.20 | 0.00 | 81 | 1007.5 |
| 20260509091342 | 44 | 115 | 0.0 | 0.0 | 0.00 | 0.20 | 0.00 | 81 | 1007.5 |
| 20260509090829 | 44 | 115 | 0.0 | 0.0 | 0.00 | 0.20 | 0.00 | 81 | 1007.6 |
| 20260509090343 | 44 | 115 | 0.0 | 0.0 | 0.00 | 0.20 | 0.00 | 82 | 1007.6 |
| 20260509085824 | 44 | 115 | 0.0 | 0.0 | 0.00 | 0.20 | 0.00 | 82 | 1007.6 |
| 20260509085331 | 44 | 115 | 0.0 | 0.0 | 0.00 | 0.20 | 0.00 | 82 | 1007.6 |
| 20260509084839 | 44 | 119 | 0.0 | 0.0 | 0.00 | 0.20 | 0.00 | 82 | 1007.6 |
| 20260509084347 | 44 | 105 | 0.0 | 0.9 | 0.00 | 0.20 | 0.00 | 83 | 1007.7 |
| 20260509083824 | 44 | 85 | 0.0 | 1.7 | 0.00 | 0.20 | 0.00 | 83 | 1007.6 |
| 20260509083333 | 44 | 110 | 0.9 | 1.7 | 0.00 | 0.20 | 0.00 | 83 | 1007.7 |
| 20260509082840 | 43 | 101 | 0.9 | 1.7 | 0.00 | 0.20 | 0.00 | 83 | 1007.7 |
| 20260509082339 | 43 | 119 | 0.0 | 0.0 | 0.00 | 0.20 | 0.00 | 83 | 1007.8 |
| 20260509081826 | 43 | 119 | 0.0 | 0.0 | 0.00 | 0.20 | 0.00 | 83 | 1007.8 |
| 20260509081333 | 43 | 119 | 0.0 | 0.0 | 0.00 | 0.20 | 0.00 | 83 | 1007.7 |
| 20260509080833 | 43 | 118 | 0.0 | 0.0 | 0.00 | 0.20 | 0.00 | 82 | 1007.7 |
| 20260509080346 | 42 | 119 | 0.0 | 0.0 | 0.00 | 0.20 | 0.00 | 82 | 1007.7 |
| 20260509075837 | 42 | 119 | 0.0 | 0.0 | 0.00 | 0.20 | 0.00 | 81 | 1007.7 |
| 20260509075345 | 42 | 119 | 0.0 | 0.0 | 0.00 | 0.20 | 0.00 | 81 | 1007.8 |
| 20260509074823 | 42 | 119 | 0.0 | 0.0 | 0.00 | 0.20 | 0.00 | 81 | 1007.7 |
| 20260509074330 | 42 | 119 | 0.0 | 0.0 | 0.00 | 0.20 | 0.00 | 81 | 1007.8 |
| 20260509073837 | 42 | 119 | 0.0 | 0.0 | 0.00 | 0.20 | 0.00 | 81 | 1007.7 |
| 20260509073334 | 42 | 119 | 0.0 | 0.0 | 0.00 | 0.20 | 0.00 | 82 | 1007.8 |
| 20260509072842 | 42 | 119 | 0.0 | 0.0 | 0.00 | 0.20 | 0.00 | 82 | 1007.8 |
| 20260509072329 | 42 | 119 | 0.0 | 0.0 | 0.00 | 0.20 | 0.00 | 82 | 1007.9 |
| 20260509071827 | 42 | 119 | 0.0 | 0.0 | 0.00 | 0.20 | 0.00 | 82 | 1007.9 |
| 20260509071334 | 42 | 119 | 0.0 | 0.0 | 0.00 | 0.20 | 0.00 | 82 | 1007.9 |
| 20260509070841 | 42 | 119 | 0.0 | 0.0 | 0.00 | 0.20 | 0.00 | 82 | 1007.9 |
| 20260509070358 | 42 | 119 | 0.0 | 0.0 | 0.00 | 0.20 | 0.00 | 82 | 1007.9 |
| 20260509065848 | 42 | 119 | 0.0 | 0.0 | 0.00 | 0.20 | 0.00 | 82 | 1007.9 |
| 20260509065326 | 42 | 119 | 0.0 | 0.0 | 0.00 | 0.20 | 0.00 | 82 | 1008.0 |
| 20260509064833 | 42 | 119 | 0.0 | 0.9 | 0.00 | 0.20 | 0.00 | 82 | 1008.1 |
| 20260509064336 | 42 | 119 | 0.0 | 0.0 | 0.00 | 0.20 | 0.00 | 82 | 1008.2 |
| 20260509063833 | 42 | 119 | 0.0 | 0.0 | 0.00 | 0.20 | 0.00 | 81 | 1008.3 |
| 20260509063341 | 42 | 119 | 0.0 | 0.0 | 0.00 | 0.20 | 0.00 | 81 | 1008.3 |
| 20260509062848 | 41 | 119 | 0.0 | 0.0 | 0.00 | 0.20 | 0.00 | 80 | 1008.4 |
| 20260509062327 | 42 | 119 | 0.0 | 0.0 | 0.00 | 0.20 | 0.00 | 80 | 1008.5 |
| 20260509061833 | 42 | 119 | 0.0 | 0.0 | 0.00 | 0.20 | 0.00 | 79 | 1008.6 |